Regional Weather Roundup
Issued by NWS

Home | Current Version | Previous Version | Text Only | Print | Product List | Glossary On
Versions: 1 2 3 4 5 6 7 8 9 10 11 12 13 14 15 16 17 18 19 20 21 22 23 24 25 26 27
000
ASPQ40 PGUM 241612
RWRPQ
WEATHER ROUNDUP FOR THE MARIANAS AND MICRONESIA
NATIONAL WEATHER SERVICE TIYAN GU
200 AM CHST WED JAN 25 2017

GUZ001>004-241700-
MARIANA ISLANDS-

CITY           SKY/WX    TMP DP  RH WIND       PRES   REMARKS
GUAM AIRPORT   CLEAR     79  73  83 NE17      29.96F
ANDERSEN AFB   PTCLDY    77  72  83 NE21G29   29.97F
ROTA AIRPORT   NOT AVBL
TINIAN AP      NOT AVBL
SAIPAN AP      CLOUDY    73  72  94 NE17G28   29.97F

$$

PMZ161-241700-
REPUBLIC OF PALAU-

CITY           SKY/WX    TMP DP  RH WIND       PRES   REMARKS
KOROR AP       MOCLDY    81  77  89 NE15G23   29.86S
KOROR WSO      NOT AVBL

$$

PMZ171>174-241700-
FEDERATED STATES OF MICRONESIA-

CITY           SKY/WX    TMP DP  RH WIND       PRES   REMARKS
YAP AIRPORT    CLOUDY    81  73  78 NE15G22   29.88F
CHUUK AP       CLOUDY    82  77  83 NE8       29.79F HX  91
POHNPEI AP     NOT AVBL
POHNPEI WSO    CLOUDY    81  75  83 E8        29.80F
KOSRAE AP      NOT AVBL

$$

PMZ181-241700-
REPUBLIC OF THE MARSHALL ISLANDS-

CITY           SKY/WX    TMP DP  RH WIND       PRES   REMARKS
KWAJALEIN AP   MOCLDY    81  73  78 E21       29.82S
MAJURO AP      NOT AVBL
MAJURO WSO     CLOUDY    81  73  78 NE13      29.79F

$$





USA.gov is the U.S. government's official web portal to all federal, state and local government web resources and services.